{"data":{"norad_id":67630,"intl_designator":"2026-020P","name":"STARLINK-36416","alt_names":[],"object_type":"PAYLOAD","status":"ACTIVE","operator":null,"country":"US","launch_date":"2026-01-30","launch_site_code":"AFETR","launch_vehicle":null,"mission":null,"orbit_class":"UNKNOWN","rcs_meters":null,"size_class":null,"mass_kg":null,"dimensions":null,"purposes":["comms"],"wikipedia_slug":null,"has_3d_model":false,"image_url":null,"decayed_at":null,"tle_current":{"epoch":"2026-05-25T04:36:05.498784Z","epoch_age_seconds":61770,"freshness":"FRESH","line1":"1 67630U 26020P   26145.19173031  .00024471  00000+0  89502-3 0  9999","line2":"2 67630  43.0031  67.7341 0001715 276.7504  83.3153 15.27609667 17817","mean_motion":15.27609667,"eccentricity":0.0001715,"inclination_deg":43.0031,"raan_deg":67.7341,"arg_perigee_deg":276.7504,"mean_anomaly_deg":83.3153,"bstar":0.00089502,"rev_number":1781,"period_min":94.264918002774,"perigee_km":481.78358562593,"apogee_km":484.13694198742,"semimajor_km":6861.0972638067,"source":"CELESTRAK","updated_at":"2026-05-25T13:38:21.651957Z"}}}